Weather Roundup
Issued by NWS Chicago, IL

Home | Current Version | Previous Version | Text Only | Print | Product List | Glossary Off
Versions: 1 2 3 4 5 6 7 8 9 10 11 12 13 14 15 16 17 18 19 20 21 22 23 24 25 26 27 28 29 30 31 32 33 34 35 36 37 38 39 40 41 42 43 44 45 46 47 48 49 50

000
NZUS59 KLOT 301100
HRRLOT

CHICAGO AREA WEATHER ROUNDUP
NATIONAL WEATHER SERVICE CHICAGO/ROMEOVILLE IL
600 AM CDT SUN AUG 30 2015

NOTE: "FAIR" INDICATES FEW OR NO CLOUDS BELOW 12,000 FEET WITH NO
SIGNIFICANT WEATHER AND/OR OBSTRUCTIONS TO VISIBILITY.

* THESE STATIONS ARE NOT UNDER NWS QUALITY CONTROL. THEY ALSO MAY NOT
  REPORT WEATHER SUCH AS PRECIPITATION OR FOG.

ILZ005-006-012>014-019>023-301200-
NORTHEAST ILLINOIS

CITY           SKY/WX    TMP DP  RH WIND       PRES   REMARKS
OHARE          CLOUDY    64  63  96 N5        30.04R FOG
MIDWAY         CLOUDY    67  63  87 N6        30.04R FOG
AURORA         CLOUDY    64  63  96 CALM      30.05S FOG
WAUKEGAN       CLOUDY    63  63 100 CALM      30.04R FOG
DUPAGE AIRPORT CLOUDY    64  62  93 N6        30.04S FOG
WHEELING       CLOUDY    65  63  93 CALM      30.05R FOG
NORTHERLY IS     N/A     63  61  93 N6          N/A
$$

WIZ051-052-058>065-066-070>072-301200-
SOUTHEAST WISCONSIN

CITY           SKY/WX    TMP DP  RH WIND       PRES   REMARKS
MILWAUKEE      FOG       63  62  97 NW5       30.05R VSB 1/4
KENOSHA*       CLOUDY    63  62  97 NW3       30.05S FOG
RACINE*        FOG       63  61  93 N6        30.06S VSB 1/4
WAUKESHA       FOG       61  61 100 CALM      30.06S VSB 1
$$

INZ001>003-010>013-019-020-301200-
NORTHWEST INDIANA

CITY           SKY/WX    TMP DP  RH WIND       PRES   REMARKS
GARY*          CLOUDY    64  63  94 N6        30.05R FOG
MICHIGAN CITY* NOT AVBL
RENSSELAER*    NOT AVBL
$$

LMZ740>746-301200-
SOUTHERN LAKE MICHIGAN

STATION/POSITION TIME  SKY/WX   TEMP WIND        PRES    VSBY
                                AIR  DIR/SP/G
                 (UTC)          (F)  (DEG/KT/KT) (MB)    (MI)
HARRISON CRIB    1000            62  330/ 10/ 12   N/A
BURNHAM HARBOR   1000            63  360/  4/  4   N/A
CALUMET HARBOR   NOT AVBL
BURNS HARBOR     1000            67  320/  5/  8 1017.3R
MICHIGAN CITY    1000            67  300/  7/  8   N/A
$$

ABBREVIATIONS USED IN REMARKS
   TC - TEMPERATURE IN CELSIUS
  WCI - WIND CHILL INDEX
   HX - HEAT INDEX
  VSB - VISIBILITY
$$


USA.gov is the U.S. government's official web portal to all federal, state and local government web resources and services.